This is the latest recevied weather packets stored in our database for station/object KC5DAQ-26. If no packets are shown the sender has not sent any weather packets the latest 10 day(s).
| Time | Temp. | Humidity | Pressure | Rain* | Wind** | Luminosity | Snow |
|---|---|---|---|---|---|---|---|
| 1787787931 | 35° C | 58% | 1015.3 hPa | 0 mm | - | 128 W/m² | - |
| 1787787872 | 35° C | 59% | 1015.2 hPa | 0 mm | - | 132 W/m² | - |
| 1787787813 | 35° C | 58% | 1015.3 hPa | 0 mm | - | 134 W/m² | - |
| 1787787751 | 35° C | 58% | 1015.3 hPa | 0 mm | - | 139 W/m² | - |
| 1787787692 | 35° C | 59% | 1015.3 hPa | 0 mm | - | 144 W/m² | - |
| 1787787633 | 35.56° C | 58% | 1015.3 hPa | 0 mm | - | 149 W/m² | - |
| 1787787560 | 35.56° C | 58% | 1015.3 hPa | 0 mm | - | 151 W/m² | - |
| 1787787495 | 35.56° C | 58% | 1015.3 hPa | 0 mm | - | 153 W/m² | - |
| 1787787435 | 35.56° C | 58% | 1015.4 hPa | 0 mm | - | 155 W/m² | - |
| 1787787376 | 35.56° C | 58% | 1015.3 hPa | 0 mm | - | 164 W/m² | - |
| 1787787314 | 35.56° C | 58% | 1015.4 hPa | 0 mm | - | 165 W/m² | - |
| 1787787253 | 35.56° C | 58% | 1015.3 hPa | 0 mm | - | 169 W/m² | - |
| 1787787192 | 35.56° C | 58% | 1015.4 hPa | 0 mm | - | 174 W/m² | - |
| 1787787129 | 35.56° C | 58% | 1015.4 hPa | 0 mm | - | 178 W/m² | - |
| 1787787069 | 35.56° C | 57% | 1015.3 hPa | 0 mm | - | 183 W/m² | - |
| 1787787007 | 35.56° C | 59% | 1015.4 hPa | 0 mm | - | 186 W/m² | - |
| 1787786946 | 35° C | 58% | 1015.2 hPa | 0 mm | - | 188 W/m² | - |
| 1787786884 | 35.56° C | 58% | 1015.4 hPa | 0 mm | - | 192 W/m² | - |
| 1787786824 | 35.56° C | 59% | 1015.4 hPa | 0 mm | - | 202 W/m² | - |
| 1787786763 | 35.56° C | 58% | 1015.4 hPa | 0 mm | - | 206 W/m² | - |
| 1787786702 | 35.56° C | 58% | 1015.4 hPa | 0 mm | - | 211 W/m² | - |
| 1787786648 | 35.56° C | 58% | 1015.4 hPa | 0 mm | - | 215 W/m² | - |
| 1787786582 | 35.56° C | 58% | 1015.5 hPa | 0 mm | - | 225 W/m² | - |
| 1787786522 | 35.56° C | 58% | 1015.5 hPa | 0 mm | - | 225 W/m² | - |
| 1787786464 | 35° C | 58% | 1015.6 hPa | 0 mm | - | 230 W/m² | - |
* Rain latest hour (hover to see other rain measurements)
** Current wind speed in m/s (hover to see current wind gust speed)